Weather History for Pinedale, WY

Change the Weather History Date:

Friday, June 21, 2013

  Actual Average (KBPI) Record (KBPI)
Temperature  
Mean Temperature 50 °F 57 °F  
Max Temperature 69 °F 74 °F 87 °F (2005)
Min Temperature 32 °F 39 °F 30 °F (2000)
Degree Days  
Heating Degree Days 14 8  
Month to date heating degree days 240  
Since 1 June heating degree days 240  
Since 1 July heating degree days 10366  
Cooling Degree Days 0 0  
Month to date cooling degree days 0  
Year to date cooling degree days 0  
Since 1 June cooling degree days 0  
Moisture  
Dew Point 24 °F    
Average Humidity 40    
Maximum Humidity 80    
Minimum Humidity 14    
Precipitation  
Precipitation 0.00 in 0.03 in 0.28 in (2003)
Month to date precipitation 0.60  
Year to date precipitation 3.07  
Sea Level Pressure  
Sea Level Pressure 30.07 in    
Wind  
Wind Speed 7 mph (West)    
Max Wind Speed 21 mph    
Max Gust Speed 32 mph    
Visibility 10 miles    
Events      
T = Trace of Precipitation, MM = Missing Value Source: NWS Daily Summary

Daily Weather History Graph

Daily Weather History Graph

Search for Another Location

Airport:

Trip Planner

Search our weather history database for the weather conditions in past years. The results will help you decide how hot, cold, wet, or windy it might be!

Date:

Astronomy

Jun. 21, 2013 Rise Set
Actual Time 5:40 AM MDT 9:01 PM MDT
Civil Twilight 5:05 AM MDT 9:36 PM MDT
Nautical Twilight 4:20 AM MDT 10:22 PM MDT
Astronomical Twilight 3:23 AM MDT 11:18 PM MDT
Moon 7:13 PM MDT (6/21) 4:01 AM MDT (6/21)
Length of Visible Light 16h 30m
Length of Day
15h 20m
Waxing Gibbous, 95% of the Moon is Illuminated
Jun 21
Waxing Gibbous
Jun 23
Full
Jun 29
Last Quarter
Jul 8
New
Jul 15
First Quarter

Hourly Weather History & Observations

Time (MDT) Temp. Windchill Dew Point Humidity Pressure Visibility Wind Dir Wind Speed Gust Speed Precip Events Conditions
12:55 AM 37.4 °F 32.8 °F 26.6 °F 65% 30.09 in 10.0 mi West 5.8 mph - N/A   Scattered Clouds
1:15 AM 37.4 °F 33.8 °F 28.4 °F 70% 30.09 in 10.0 mi WNW 4.6 mph - N/A   Scattered Clouds
1:35 AM 37.4 °F 33.8 °F 26.6 °F 65% 30.08 in 10.0 mi WNW 4.6 mph - N/A   Scattered Clouds
1:55 AM 37.4 °F 32.8 °F 26.6 °F 65% 30.07 in 10.0 mi WNW 5.8 mph - N/A   Scattered Clouds
2:15 AM 35.6 °F 29.2 °F 26.6 °F 70% 30.07 in 10.0 mi NW 8.1 mph - N/A   Scattered Clouds
2:35 AM 33.8 °F 28.6 °F 26.6 °F 75% 30.06 in 10.0 mi West 5.8 mph - N/A   Mostly Cloudy
2:55 AM 32.0 °F 27.5 °F 26.6 °F 80% 30.06 in 10.0 mi WNW 4.6 mph - N/A   Mostly Cloudy
3:15 AM 32.0 °F 26.4 °F 26.6 °F 80% 30.06 in 10.0 mi WNW 5.8 mph - N/A   Mostly Cloudy
3:35 AM 32.0 °F 26.4 °F 24.8 °F 75% 30.06 in 10.0 mi NW 5.8 mph - N/A   Mostly Cloudy
3:55 AM 32.0 °F 26.4 °F 26.6 °F 80% 30.06 in 10.0 mi WNW 5.8 mph - N/A   Mostly Cloudy
4:15 AM 32.0 °F 26.4 °F 26.6 °F 80% 30.06 in 10.0 mi NW 5.8 mph - N/A   Mostly Cloudy
4:35 AM 32.0 °F 25.6 °F 26.6 °F 80% 30.06 in 10.0 mi WNW 6.9 mph - N/A   Scattered Clouds
4:55 AM 33.8 °F 28.6 °F 26.6 °F 75% 30.06 in 10.0 mi WNW 5.8 mph - N/A   Clear
5:15 AM 32.0 °F 25.6 °F 26.6 °F 80% 30.06 in 10.0 mi WNW 6.9 mph - N/A   Clear
5:35 AM 32.0 °F 26.4 °F 26.6 °F 80% 30.07 in 10.0 mi WNW 5.8 mph - N/A   Clear
5:55 AM 32.0 °F 26.4 °F 26.6 °F 80% 30.07 in 10.0 mi West 5.8 mph - N/A   Clear
6:15 AM 32.0 °F - 26.6 °F 80% 30.08 in 10.0 mi Calm Calm - N/A   Clear
6:35 AM 35.6 °F 32.8 °F 26.6 °F 70% 30.09 in 10.0 mi West 3.5 mph - N/A   Clear
6:55 AM 32.0 °F 27.5 °F 26.6 °F 80% 30.09 in 10.0 mi West 4.6 mph - N/A   Clear
7:15 AM 35.6 °F 31.7 °F 26.6 °F 70% 30.09 in 10.0 mi West 4.6 mph - N/A   Clear
7:35 AM 37.4 °F 34.9 °F 28.4 °F 70% 30.09 in 10.0 mi West 3.5 mph - N/A   Clear
7:55 AM 42.8 °F 40.1 °F 26.6 °F 53% 30.08 in 10.0 mi WNW 4.6 mph - N/A   Clear
8:15 AM 44.6 °F - 28.4 °F 53% 30.07 in 10.0 mi Calm Calm - N/A   Clear
8:35 AM 50.0 °F - 26.6 °F 40% 30.05 in 10.0 mi ESE 8.1 mph - N/A   Clear
8:55 AM 51.8 °F - 26.6 °F 38% 30.05 in 10.0 mi ESE 9.2 mph - N/A   Clear
9:15 AM 55.4 °F - 26.6 °F 33% 30.06 in 10.0 mi South 4.6 mph - N/A   Clear
9:35 AM 59.0 °F - 21.2 °F 23% 30.07 in 10.0 mi SSW 4.6 mph - N/A   Clear
9:55 AM 59.0 °F - 24.8 °F 27% 30.07 in 10.0 mi West 5.8 mph - N/A   Clear
10:15 AM 60.8 °F - 23.0 °F 23% 30.07 in 10.0 mi WNW 9.2 mph - N/A   Clear
10:35 AM 60.8 °F - 19.4 °F 20% 30.07 in 10.0 mi WNW 9.2 mph - N/A   Clear
10:55 AM 62.6 °F - 17.6 °F 18% 30.06 in 10.0 mi WSW 4.6 mph - N/A   Clear
11:15 AM 64.4 °F - 17.6 °F 16% 30.06 in 10.0 mi SW 3.5 mph 9.2 mph N/A   Clear
11:35 AM 64.4 °F - 17.6 °F 16% 30.06 in 10.0 mi SSW 5.8 mph - N/A   Clear
11:55 AM 66.2 °F - 19.4 °F 17% 30.05 in 10.0 mi South 12.7 mph 16.1 mph N/A   Clear
12:15 PM 68.0 °F - 19.4 °F 16% 30.05 in 10.0 mi SSW 13.8 mph 20.7 mph N/A   Clear
12:35 PM 68.0 °F - 17.6 °F 15% 30.05 in 10.0 mi SSW 19.6 mph 27.6 mph N/A   Clear
12:55 PM 68.0 °F - 17.6 °F 15% 30.05 in 10.0 mi South 12.7 mph 26.5 mph N/A   Scattered Clouds
1:15 PM 69.8 °F - 19.4 °F 15% 30.05 in 10.0 mi SW 18.4 mph 25.3 mph N/A   Scattered Clouds
1:35 PM 69.8 °F - 17.6 °F 14% 30.05 in 10.0 mi SSW 19.6 mph 32.2 mph N/A   Scattered Clouds
1:55 PM 69.8 °F - 17.6 °F 14% 30.05 in 10.0 mi SSW 19.6 mph 28.8 mph N/A   Scattered Clouds
2:15 PM 69.8 °F - 17.6 °F 14% 30.05 in 10.0 mi SSW 18.4 mph 28.8 mph N/A   Clear
2:35 PM 69.8 °F - 19.4 °F 15% 30.06 in 10.0 mi SW 20.7 mph 26.5 mph N/A   Clear
2:55 PM 69.8 °F - 17.6 °F 14% 30.06 in 10.0 mi WSW 15.0 mph 24.2 mph N/A   Clear
3:15 PM 69.8 °F - 19.4 °F 15% 30.05 in 10.0 mi SW 20.7 mph 28.8 mph N/A   Clear
3:35 PM 69.8 °F - 19.4 °F 15% 30.06 in 10.0 mi SSW 19.6 mph 29.9 mph N/A   Scattered Clouds
3:55 PM 66.2 °F - 19.4 °F 17% 30.06 in 10.0 mi SW 17.3 mph 25.3 mph N/A   Scattered Clouds
4:15 PM 66.2 °F - 19.4 °F 17% 30.06 in 10.0 mi West 17.3 mph 26.5 mph N/A   Clear
4:35 PM 64.4 °F - 19.4 °F 18% 30.06 in 10.0 mi WSW 18.4 mph 23.0 mph N/A   Clear
4:55 PM 64.4 °F - 17.6 °F 16% 30.07 in 10.0 mi West 19.6 mph 29.9 mph N/A   Clear
5:15 PM 62.6 °F - 21.2 °F 20% 30.08 in 10.0 mi West 12.7 mph 23.0 mph N/A   Clear
5:35 PM 62.6 °F - 17.6 °F 18% 30.08 in 10.0 mi WSW 13.8 mph 20.7 mph N/A   Clear
5:55 PM 62.6 °F - 19.4 °F 19% 30.08 in 10.0 mi West 11.5 mph - N/A   Clear
6:15 PM 62.6 °F - 21.2 °F 20% 30.08 in 10.0 mi West 8.1 mph - N/A   Clear
6:35 PM 60.8 °F - 19.4 °F 20% 30.08 in 10.0 mi West 11.5 mph - N/A   Scattered Clouds
6:55 PM 60.8 °F - 23.0 °F 23% 30.08 in 10.0 mi NNW 3.5 mph - N/A   Scattered Clouds
7:15 PM 59.0 °F - 30.2 °F 34% 30.09 in 10.0 mi Calm Calm - N/A   Scattered Clouds
7:35 PM 59.0 °F - 32.0 °F 36% 30.09 in 10.0 mi Calm Calm - N/A   Clear
7:55 PM 59.0 °F - 30.2 °F 34% 30.09 in 10.0 mi ESE 5.8 mph - N/A   Clear
8:15 PM 59.0 °F - 21.2 °F 23% 30.09 in 10.0 mi South 4.6 mph - N/A   Clear
8:35 PM 59.0 °F - 21.2 °F 23% 30.09 in 10.0 mi SSW 4.6 mph - N/A   Clear
8:55 PM 57.2 °F - 21.2 °F 25% 30.09 in 10.0 mi North 3.5 mph - N/A   Scattered Clouds
9:15 PM 55.4 °F - 26.6 °F 33% 30.10 in 10.0 mi NW 4.6 mph - N/A   Scattered Clouds
9:35 PM 53.6 °F - 26.6 °F 35% 30.11 in 10.0 mi West 4.6 mph - N/A   Clear
9:55 PM 53.6 °F - 28.4 °F 38% 30.11 in 10.0 mi NNW 5.8 mph - N/A   Mostly Cloudy
10:15 PM 53.6 °F - 28.4 °F 38% 30.11 in 10.0 mi NW 4.6 mph - N/A   Mostly Cloudy
10:35 PM 51.8 °F - 28.4 °F 41% 30.11 in 10.0 mi West 3.5 mph - N/A   Overcast
10:55 PM 51.8 °F - 26.6 °F 38% 30.11 in 10.0 mi WNW 6.9 mph - N/A   Scattered Clouds
11:15 PM 51.8 °F - 26.6 °F 38% 30.11 in 10.0 mi WNW 6.9 mph - N/A   Scattered Clouds
11:35 PM 51.8 °F - 26.6 °F 38% 30.11 in 10.0 mi NW 5.8 mph - N/A   Clear
11:55 PM 51.8 °F - 26.6 °F 38% 30.11 in 10.0 mi WNW 5.8 mph - N/A   Scattered Clouds